Location: Moscow
(55.7500°N, 37.5830°E)
Time: 05:41:32
(UTC+03:00)

Vanguard 1 - Pass Details

Date: 01 December 2021
Orbit: 652 x 3830 km, 34.2° (Epoch: 21 January)

Event Time Altitude Azimuth Distance (km) Brightness Sun altitude
Rises 02:38:42 0° 239° (WSW) 7,898 - -47.3°
Reaches altitude 10° 02:44:45 10° 233° (SW) 6,933 - -46.6°
Maximum altitude 03:04:02 36° 177° (S) 4,529 - -44.4°
Exits shadow 03:04:54 36° 173° (S) 4,487 13.1 -44.3°
Drops below altitude 10° 03:18:22 10° 119° (ESE) 5,217 14.0 -42.6°
Sets 03:22:06 0° 111° (ESE) 5,832 14.5 -42.1°
